timestamp,wind_dir_avg,wind_spd_avg,wind_spd_max_dir,wind_spd_gust,battery_voltage,lat,long
2020-11-05 00:04:01+00:00,279.0,10.52,277.0,12.42,12.57,47.59359,-54.27349
2020-11-05 00:14:01+00:00,280.0,9.24,270.0,10.76,12.57,47.59359,-54.27349
2020-11-05 00:24:01+00:00,281.0,9.06,294.0,10.24,12.57,47.59359,-54.27349
2020-11-05 00:34:01+00:00,287.0,9.92,293.0,11.59,12.57,47.59359,-54.27349
2020-11-05 00:44:01+00:00,279.0,9.17,272.0,10.96,12.57,47.59359,-54.27349
2020-11-05 00:54:01+00:00,280.0,7.79,286.0,9.61,12.57,47.59359,-54.27349
2020-11-05 01:04:01+00:00,285.0,7.6,289.0,9.14,12.57,47.59359,-54.27349
2020-11-05 01:14:01+00:00,275.0,8.71,274.0,9.76,12.57,47.59359,-54.27349
2020-11-05 01:24:01+00:00,277.0,7.97,278.0,9.25,12.57,47.59359,-54.27349
2020-11-05 01:34:01+00:00,273.0,9.07,270.0,10.77,12.57,47.59359,-54.27349
2020-11-05 01:44:01+00:00,283.0,9.21,288.0,10.53,12.57,47.59359,-54.27349
2020-11-05 01:54:01+00:00,285.0,7.97,290.0,9.23,12.57,47.59359,-54.27349
2020-11-05 02:04:01+00:00,283.0,8.0,288.0,9.97,12.57,47.59359,-54.27349
2020-11-05 02:14:01+00:00,282.0,9.09,291.0,11.33,12.57,47.59359,-54.27349
2020-11-05 02:24:01+00:00,279.0,9.98,279.0,11.26,12.57,47.59359,-54.27349
2020-11-05 02:34:01+00:00,281.0,9.77,283.0,11.06,12.57,47.59359,-54.27349
2020-11-05 02:44:01+00:00,276.0,8.49,286.0,10.38,12.57,47.59359,-54.27349
2020-11-05 02:54:01+00:00,276.0,8.89,277.0,11.04,12.57,47.59359,-54.27349
2020-11-05 03:04:01+00:00,281.0,9.03,281.0,10.4,12.57,47.59359,-54.27349
2020-11-05 03:14:01+00:00,281.0,8.87,288.0,11.08,12.49,47.59359,-54.27349
2020-11-05 03:24:01+00:00,286.0,8.45,290.0,10.52,12.49,47.59359,-54.27349
2020-11-05 03:34:01+00:00,285.0,8.42,282.0,9.57,12.49,47.59359,-54.27349
2020-11-05 03:44:01+00:00,280.0,7.13,285.0,9.03,12.49,47.59359,-54.27349
2020-11-05 03:54:01+00:00,277.0,7.66,274.0,9.01,12.49,47.59359,-54.27349
2020-11-05 04:04:01+00:00,283.0,9.51,283.0,10.58,12.49,47.59359,-54.27349
2020-11-05 04:14:01+00:00,283.0,9.81,281.0,11.18,12.49,47.59359,-54.27349
2020-11-05 04:24:01+00:00,289.0,8.02,286.0,9.17,12.49,47.59359,-54.27349
2020-11-05 04:34:01+00:00,296.0,7.99,291.0,9.7,12.49,47.59359,-54.27349
2020-11-05 04:44:01+00:00,282.0,8.43,277.0,9.63,12.49,47.59359,-54.27349
2020-11-05 04:54:01+00:00,288.0,8.45,284.0,10.46,12.49,47.59359,-54.27349
2020-11-05 05:04:01+00:00,291.0,7.77,289.0,9.73,12.49,47.59359,-54.27349
2020-11-05 05:14:01+00:00,290.0,7.65,298.0,9.09,12.49,47.59359,-54.27349
2020-11-05 05:24:01+00:00,284.0,7.27,286.0,8.53,12.49,47.59359,-54.27349
2020-11-05 05:34:01+00:00,291.0,7.72,299.0,9.43,12.49,47.59359,-54.27349
2020-11-05 05:44:01+00:00,288.0,8.24,284.0,9.64,12.49,47.59359,-54.27349
2020-11-05 05:54:01+00:00,288.0,7.35,281.0,9.11,12.49,47.59359,-54.27349
2020-11-05 06:04:01+00:00,295.0,8.54,296.0,10.17,12.49,47.59359,-54.27349
2020-11-05 06:14:01+00:00,293.0,7.06,298.0,9.18,12.41,47.59359,-54.27349
2020-11-05 06:24:01+00:00,290.0,8.45,285.0,10.32,12.41,47.59359,-54.27349
2020-11-05 06:34:01+00:00,291.0,6.83,288.0,7.93,12.41,47.59359,-54.27349
2020-11-05 06:44:01+00:00,289.0,7.0,287.0,8.52,12.41,47.59359,-54.27349
2020-11-05 06:54:01+00:00,294.0,6.3,300.0,7.41,12.41,47.59359,-54.27349
2020-11-05 07:04:01+00:00,292.0,7.4,291.0,10.23,12.41,47.59359,-54.27349
2020-11-05 07:14:01+00:00,287.0,8.27,288.0,10.05,12.41,47.59359,-54.27349
2020-11-05 07:24:01+00:00,288.0,7.81,290.0,9.4,12.41,47.59359,-54.27349
2020-11-05 07:34:01+00:00,293.0,6.89,300.0,8.09,12.41,47.59359,-54.27349
2020-11-05 07:44:01+00:00,285.0,5.92,276.0,6.84,12.41,47.59359,-54.27349
2020-11-05 07:54:01+00:00,295.0,6.6,292.0,7.51,12.41,47.59359,-54.27349
2020-11-05 08:04:01+00:00,292.0,6.06,294.0,6.8,12.41,47.59359,-54.27349
2020-11-05 08:14:01+00:00,291.0,6.39,290.0,7.36,12.41,47.59359,-54.27349
2020-11-05 08:24:01+00:00,288.0,6.21,283.0,8.11,12.41,47.59359,-54.27349
2020-11-05 08:34:01+00:00,302.0,6.06,291.0,7.5,12.41,47.59359,-54.27349
2020-11-05 08:44:01+00:00,291.0,6.55,292.0,7.77,12.41,47.59359,-54.27349
2020-11-05 08:54:01+00:00,301.0,6.7,298.0,7.79,12.41,47.59359,-54.27349
2020-11-05 09:04:01+00:00,303.0,6.78,296.0,7.69,12.41,47.59359,-54.27349
2020-11-05 09:14:01+00:00,295.0,6.47,287.0,8.35,12.41,47.59359,-54.27349
2020-11-05 09:24:01+00:00,298.0,7.05,297.0,8.04,12.41,47.59359,-54.27349
2020-11-05 09:34:01+00:00,305.0,7.05,302.0,8.4,12.41,47.59359,-54.27349
2020-11-05 09:44:01+00:00,305.0,7.13,307.0,8.94,12.41,47.59359,-54.27349
2020-11-05 09:54:01+00:00,293.0,6.72,292.0,7.86,12.41,47.59359,-54.27349
2020-11-05 10:04:01+00:00,291.0,7.08,285.0,8.76,12.41,47.59359,-54.27349
2020-11-05 10:14:01+00:00,302.0,7.53,306.0,8.84,12.41,47.59359,-54.27349
2020-11-05 10:24:01+00:00,299.0,6.64,292.0,7.67,12.41,47.59359,-54.27349
2020-11-05 10:34:01+00:00,297.0,6.65,299.0,7.69,12.41,47.59359,-54.27349
2020-11-05 10:44:01+00:00,300.0,6.45,302.0,7.23,12.41,47.59359,-54.27349
2020-11-05 10:54:01+00:00,307.0,6.91,315.0,7.79,12.41,47.59359,-54.27349
2020-11-05 11:04:01+00:00,305.0,6.87,305.0,7.68,12.41,47.59359,-54.27349
2020-11-05 11:14:01+00:00,299.0,7.06,294.0,8.28,13.84,47.59359,-54.27349
2020-11-05 11:24:01+00:00,295.0,5.42,296.0,6.13,13.84,47.59359,-54.27349
2020-11-05 11:34:01+00:00,296.0,4.44,292.0,5.85,13.84,47.59359,-54.27349
2020-11-05 11:44:01+00:00,296.0,5.4,293.0,5.95,13.84,47.59359,-54.27349
2020-11-05 11:54:01+00:00,299.0,5.72,303.0,7.11,13.84,47.59359,-54.27349
2020-11-05 12:04:01+00:00,293.0,5.34,290.0,7.11,13.84,47.59359,-54.27349
2020-11-05 12:14:01+00:00,299.0,4.92,297.0,6.27,14.32,47.59359,-54.27349
2020-11-05 12:24:01+00:00,293.0,5.26,292.0,6.22,14.32,47.59359,-54.27349
2020-11-05 12:34:01+00:00,288.0,5.74,285.0,6.79,14.32,47.59359,-54.27349
2020-11-05 12:44:01+00:00,292.0,5.43,298.0,7.15,14.32,47.59359,-54.27349
2020-11-05 12:54:01+00:00,298.0,5.84,295.0,6.84,14.32,47.59359,-54.27349
2020-11-05 13:04:01+00:00,294.0,5.12,293.0,5.86,14.32,47.59359,-54.27349
2020-11-05 13:14:01+00:00,293.0,5.88,298.0,6.55,13.76,47.59359,-54.27349
2020-11-05 13:24:01+00:00,299.0,5.48,303.0,6.59,13.76,47.59359,-54.27349
2020-11-05 13:34:01+00:00,302.0,5.14,307.0,6.22,13.76,47.59359,-54.27349
2020-11-05 13:44:01+00:00,304.0,5.38,305.0,6.25,13.76,47.59359,-54.27349
2020-11-05 13:54:01+00:00,287.0,5.06,289.0,6.43,13.76,47.59359,-54.27349
2020-11-05 14:04:01+00:00,287.0,5.05,283.0,5.94,13.76,47.59359,-54.27349
2020-11-05 14:14:01+00:00,270.0,4.08,268.0,5.03,13.68,47.59359,-54.27349
2020-11-05 14:24:01+00:00,278.0,3.93,292.0,4.76,13.68,47.59359,-54.27349
2020-11-05 14:34:01+00:00,277.0,4.0,270.0,5.17,13.68,47.59359,-54.27349
2020-11-05 14:44:01+00:00,274.0,2.84,281.0,3.57,13.68,47.59359,-54.27349
2020-11-05 14:54:01+00:00,277.0,3.88,275.0,5.96,13.68,47.59359,-54.27349
2020-11-05 15:04:01+00:00,265.0,3.4,267.0,4.32,13.68,47.59359,-54.27349
2020-11-05 15:14:01+00:00,267.0,3.28,264.0,4.25,13.68,47.59359,-54.27349
2020-11-05 15:24:01+00:00,265.0,2.01,276.0,3.33,13.68,47.59359,-54.27349
2020-11-05 15:34:01+00:00,269.0,3.53,269.0,5.58,13.68,47.59359,-54.27349
2020-11-05 15:44:01+00:00,296.0,2.41,298.0,2.99,13.68,47.59359,-54.27349
2020-11-05 15:54:01+00:00,277.0,3.11,265.0,3.58,13.68,47.59359,-54.27349
2020-11-05 16:04:01+00:00,263.0,2.29,255.0,2.93,13.68,47.59359,-54.27349
2020-11-05 16:14:01+00:00,270.0,3.65,277.0,4.43,14.24,47.59359,-54.27349
2020-11-05 16:24:01+00:00,270.0,3.08,267.0,3.55,14.24,47.59359,-54.27349
2020-11-05 16:34:01+00:00,257.0,3.71,247.0,5.12,14.24,47.59359,-54.27349
2020-11-05 16:44:01+00:00,261.0,4.1,264.0,4.93,14.24,47.59359,-54.27349
2020-11-05 16:54:01+00:00,226.0,3.44,233.0,4.32,14.24,47.59359,-54.27349
2020-11-05 17:04:01+00:00,240.0,5.12,240.0,5.98,14.24,47.59359,-54.27349
2020-11-05 17:14:01+00:00,235.0,4.42,240.0,5.52,13.76,47.59359,-54.27349
2020-11-05 17:24:01+00:00,234.0,3.75,232.0,4.29,13.76,47.59359,-54.27349
2020-11-05 17:34:01+00:00,243.0,4.03,245.0,4.7,13.76,47.59359,-54.27349
2020-11-05 17:44:01+00:00,226.0,5.09,234.0,5.74,13.76,47.59359,-54.27349
2020-11-05 17:54:01+00:00,239.0,4.19,240.0,4.9,13.76,47.59359,-54.27349
2020-11-05 18:04:01+00:00,237.0,4.47,241.0,5.31,13.76,47.59359,-54.27349
2020-11-05 18:14:01+00:00,242.0,5.93,242.0,7.38,14.32,47.59359,-54.27349
2020-11-05 18:24:01+00:00,243.0,5.3,237.0,6.16,14.32,47.59359,-54.27349
2020-11-05 18:34:01+00:00,254.0,7.02,256.0,8.16,14.32,47.59359,-54.27349
2020-11-05 18:44:01+00:00,244.0,5.24,241.0,6.25,14.32,47.59359,-54.27349
2020-11-05 18:54:01+00:00,233.0,6.32,234.0,7.65,14.32,47.59359,-54.27349
2020-11-05 19:04:01+00:00,234.0,6.73,230.0,8.02,14.32,47.59359,-54.27349
2020-11-05 19:14:01+00:00,213.0,7.17,217.0,8.89,13.76,47.59359,-54.27349
2020-11-05 19:24:01+00:00,226.0,6.55,230.0,7.41,13.76,47.59359,-54.27349
2020-11-05 19:34:01+00:00,232.0,7.45,233.0,8.62,13.76,47.59359,-54.27349
2020-11-05 19:44:01+00:00,229.0,6.69,241.0,8.24,13.76,47.59359,-54.27349
2020-11-05 19:54:01+00:00,222.0,8.0,220.0,8.75,13.76,47.59359,-54.27349
2020-11-05 20:04:01+00:00,226.0,7.66,229.0,9.24,13.76,47.59359,-54.27349
2020-11-05 20:14:01+00:00,226.0,8.65,227.0,9.91,13.29,47.59359,-54.27349
2020-11-05 20:24:01+00:00,225.0,8.57,232.0,9.95,13.29,47.59359,-54.27349
2020-11-05 20:34:01+00:00,232.0,8.02,235.0,9.75,13.29,47.59359,-54.27349
2020-11-05 20:44:01+00:00,231.0,8.87,221.0,10.89,13.29,47.59359,-54.27349
2020-11-05 20:54:01+00:00,228.0,9.31,229.0,11.63,13.29,47.59359,-54.27349
2020-11-05 21:04:01+00:00,229.0,8.02,228.0,9.43,13.29,47.59359,-54.27349
2020-11-05 21:14:01+00:00,232.0,9.43,231.0,11.22,12.73,47.59359,-54.27349
2020-11-05 21:24:01+00:00,227.0,8.78,228.0,10.94,12.73,47.59359,-54.27349
2020-11-05 21:34:01+00:00,239.0,8.4,240.0,9.59,12.73,47.59359,-54.27349
2020-11-05 21:44:01+00:00,252.0,8.73,256.0,10.61,12.73,47.59359,-54.27349
2020-11-05 21:54:01+00:00,255.0,8.07,255.0,8.8,12.73,47.59359,-54.27349
2020-11-05 22:04:01+00:00,254.0,7.51,260.0,8.32,12.73,47.59359,-54.27349
2020-11-05 22:14:01+00:00,248.0,8.33,244.0,9.37,12.65,47.59359,-54.27349
2020-11-05 22:24:01+00:00,251.0,8.45,254.0,9.6,12.65,47.59359,-54.27349
2020-11-05 22:34:01+00:00,247.0,8.04,249.0,9.78,12.65,47.59359,-54.27349
2020-11-05 22:44:01+00:00,247.0,8.76,250.0,10.11,12.65,47.59359,-54.27349
2020-11-05 22:54:01+00:00,233.0,8.61,234.0,9.64,12.65,47.59359,-54.27349
2020-11-05 23:04:01+00:00,232.0,10.34,231.0,12.05,12.65,47.59359,-54.27349
2020-11-05 23:14:01+00:00,231.0,9.56,234.0,11.36,12.65,47.59359,-54.27349
2020-11-05 23:24:01+00:00,231.0,8.86,233.0,10.35,12.65,47.59359,-54.27349
2020-11-05 23:34:01+00:00,228.0,10.13,218.0,11.16,12.65,47.59359,-54.27349
2020-11-05 23:44:01+00:00,223.0,10.24,221.0,13.16,12.65,47.59359,-54.27349
2020-11-05 23:54:01+00:00,232.0,11.34,245.0,12.87,12.65,47.59359,-54.27349
